Jacksonville Craig, FL

11:26 PM EDT on October 23, 2017 (GMT -0400)
Craig Municipal

Weather History for KCRG - November, 2012

Change the Weather History Date:

Monday, November 5, 2012

  Actual Average Record
Temperature  
Mean Temperature 68 °F -  
Max Temperature 75 °F 73 °F 84 °F (2003)
Min Temperature 57 °F 55 °F 48 °F (2010)
Cooling Degree Days 2    
Growing Degree Days 18 (Base 50)    
Moisture  
Dew Point 56 °F    
Average Humidity 73    
Maximum Humidity 94    
Minimum Humidity 29    
Precipitation  
Precipitation 0.00 in - - ()
Sea Level Pressure  
Sea Level Pressure 29.98 in    
Wind  
Wind Speed 8 mph (NNW)    
Max Wind Speed 12 mph    
Max Gust Speed -    
Visibility 9 miles    
Events      
Averages and records for this station are not official NWS values.
T = Trace of Precipitation, MM = Missing Value Source: NWS Daily Summary

Daily Weather History Graph

Daily Weather History Graph

Search for Another Location

Airport or City:

Trip Planner

Search our weather history database for the weather conditions in past years. The results will help you decide how hot, cold, wet, or windy it might be!

Date:

Astronomy

Nov. 05, 2012 Rise Set
Actual Time 6:43 AM EST 5:35 PM EST
Civil Twilight 6:18 AM EST 5:59 PM EST
Nautical Twilight 5:50 AM EST 6:28 PM EST
Astronomical Twilight 5:22 AM EST 6:56 PM EST
Moon 11:10 PM EST (11/5) 12:01 PM EST (11/5)
Length of Visible Light 11h 41m
Length of Day
10h 51m
Waning Gibbous, 63% of the Moon is Illuminated
Nov 5
Waning Gibbous
Nov 6
Last Quarter
Nov 13
New
Nov 20
First Quarter
Nov 28
Full

Hourly Weather History & Observations

Time (EST) Temp. Dew Point Humidity Pressure Visibility Wind Dir Wind Speed Gust Speed Precip Events Conditions
12:37 AM 66.2 °F 62.6 °F 88% 29.98 in 10.0 mi WSW 11.5 mph - N/A   Scattered Clouds
12:48 AM 66.2 °F 62.6 °F 88% 29.98 in 9.0 mi WSW 9.2 mph - N/A   Mostly Cloudy
12:53 AM 66.0 °F 62.1 °F 87% 29.97 in 9.0 mi WSW 9.2 mph - N/A   Mostly Cloudy
1:43 AM 66.2 °F 62.6 °F 88% 29.97 in 9.0 mi West 6.9 mph - N/A   Overcast
1:53 AM 66.9 °F 63.0 °F 87% 29.97 in 10.0 mi WSW 9.2 mph - N/A   Overcast
2:53 AM 66.9 °F 63.0 °F 87% 29.96 in 10.0 mi West 6.9 mph - N/A   Partly Cloudy
5:22 AM 64.4 °F 62.6 °F 94% 29.97 in 6.0 mi WNW 4.6 mph - N/A   Partly Cloudy
5:48 AM 64.4 °F 62.6 °F 94% 29.98 in 6.0 mi NW 5.8 mph - N/A   Mostly Cloudy
5:53 AM 64.9 °F 62.1 °F 90% 29.98 in 6.0 mi WNW 5.8 mph - N/A   Mostly Cloudy
6:23 AM 62.6 °F 60.8 °F 94% 29.98 in 8.0 mi NW 6.9 mph - N/A   Scattered Clouds
6:53 AM 63.0 °F 60.1 °F 90% 29.99 in 8.0 mi NW 6.9 mph - N/A   Clear
7:53 AM 63.0 °F 57.0 °F 81% 30.00 in 10.0 mi NNW 9.2 mph - N/A   Clear
8:53 AM 66.0 °F 53.1 °F 63% 30.01 in 10.0 mi NNW 6.9 mph - N/A   Clear
9:53 AM 68.0 °F 52.0 °F 56% 30.01 in 10.0 mi NW 5.8 mph - N/A   Clear
10:53 AM 70.0 °F 52.0 °F 53% 30.02 in 10.0 mi WNW 6.9 mph - N/A   Clear
11:53 AM 71.1 °F 48.0 °F 44% 30.00 in 10.0 mi WNW 6.9 mph - N/A   Clear
12:53 PM 73.0 °F 43.0 °F 34% 29.97 in 10.0 mi NW 4.6 mph - N/A   Clear
1:53 PM 75.0 °F 41.0 °F 29% 29.95 in 10.0 mi NW 8.1 mph - N/A   Clear
2:53 PM 72.0 °F 51.1 °F 48% 29.96 in 10.0 mi ENE 10.4 mph - N/A   Clear
3:53 PM 68.0 °F 53.1 °F 59% 29.96 in 10.0 mi NE 11.5 mph - N/A   Clear
4:53 PM 64.9 °F 54.0 °F 68% 29.97 in 10.0 mi NE 9.2 mph - N/A   Clear
5:53 PM 63.0 °F 54.0 °F 72% 29.98 in 10.0 mi NE 3.5 mph - N/A   Clear
6:53 PM 62.1 °F 54.0 °F 75% 29.99 in 10.0 mi NE 5.8 mph - N/A   Clear
7:53 PM 61.0 °F 53.1 °F 75% 30.00 in 10.0 mi NNE 3.5 mph - N/A   Clear
8:53 PM 60.1 °F 53.1 °F 78% 30.00 in 10.0 mi NE 3.5 mph - N/A   Clear
9:53 PM 61.0 °F 52.0 °F 72% 30.00 in 10.0 mi NE 4.6 mph - N/A   Clear
10:53 PM 60.1 °F 52.0 °F 75% 29.98 in 10.0 mi NE 3.5 mph - N/A   Clear
11:53 PM 57.9 °F 52.0 °F 81% 29.96 in 10.0 mi ENE 3.5 mph - N/A   Clear